Location: Bergnershof
(48.9468°N, 10.9431°E)
Time: 02:59:22
(UTC+00:00)

SL-16 R/B - Pass Details

Date: 03 March 2021
Orbit: 842 x 846 km, 71.0° (Epoch: 11 April)

Event Time Altitude Azimuth Distance (km) Brightness Sun altitude
Rises 19:32:32 0° 248° (WSW) 3,397 6.0 -25.0°
Reaches altitude 10° 19:35:25 10° 261° (W) 2,467 5.4 -25.4°
Maximum altitude 19:40:03 25° 316° (NW) 1,637 4.3 -26.2°
Drops below altitude 10° 19:44:43 10° 12° (NNE) 2,478 4.7 -26.9°
Sets 19:47:37 0° 25° (NNE) 3,417 5.4 -27.3°
